Weather History for Cajamarca, Peru

Change the Weather History Date:

Thursday, October 11, 2012

  Actual Average Record
Temperature  
Mean Temperature 58 °F -  
Max Temperature 68 °F - - ()
Min Temperature 48 °F - - ()
Degree Days  
Heating Degree Days 7    
Growing Degree Days 8 (Base 50)    
Moisture  
Dew Point 52 °F    
Average Humidity 75    
Maximum Humidity 100    
Minimum Humidity 53    
Precipitation  
Precipitation 0.00 in - - ()
Sea Level Pressure  
Sea Level Pressure 30.34 in    
Wind  
Wind Speed 4 mph ()    
Max Wind Speed 10 mph    
Max Gust Speed -    
Visibility 6.2 miles    
Events      
T = Trace of Precipitation, MM = Missing Value Source: Averaged Metar Reports

Daily Weather History Graph

Daily Weather History Graph

Search for Another Location

Airport:

Trip Planner

Search our weather history database for the weather conditions in past years. The results will help you decide how hot, cold, wet, or windy it might be!

Date:

Astronomy

Oct. 11, 2012 Rise Set
Actual Time 5:53 AM PET 6:07 PM PET
Civil Twilight 5:32 AM PET 6:28 PM PET
Nautical Twilight 5:08 AM PET 6:53 PM PET
Astronomical Twilight 4:43 AM PET 7:17 PM PET
Moon 2:33 AM PET (10/11) 2:48 PM PET (10/11)
Length of Visible Light 12h 56m
Length of Day
12h 14m
Waning Crescent, 18% of the Moon is Illuminated
Oct 11
Waning Crescent
Oct 15
New
Oct 21
First Quarter
Oct 29
Full
Nov 6
Last Quarter

Hourly Weather History & Observations

Time (PET) Temp. Dew Point Humidity Pressure Visibility Wind Dir Wind Speed Gust Speed Precip Events Conditions
4:00 AM 50.0 °F 48.2 °F 94% 30.30 in 6.2 mi Variable 2.3 mph - N/A   Mostly Cloudy
4:30 AM 50.0 °F 48.2 °F 94% 30.30 in 6.2 mi Calm Calm - N/A   Overcast
5:00 AM 50.0 °F 48.2 °F 94% 30.30 in 6.2 mi Variable 2.3 mph - N/A   Overcast
5:30 AM 50.0 °F 50.0 °F 100% 30.33 in 6.2 mi Variable 2.3 mph - N/A   Mostly Cloudy
6:00 AM 50.0 °F 48.2 °F 94% 30.33 in 6.2 mi Variable 2.3 mph - N/A   Mostly Cloudy
6:30 AM 50.0 °F 48.2 °F 94% 30.36 in 6.2 mi Calm Calm - N/A   Mostly Cloudy
7:00 AM 52 °F 49 °F 88%  in 6 mi ENE 1.2 mph - -   Partly Cloudy
7:00 AM 51.8 °F 50.0 °F 94% 30.36 in 6.2 mi Variable 1.2 mph - N/A   Mostly Cloudy
7:30 AM 55.4 °F 50.0 °F 82% 30.39 in 6.2 mi Variable 2.3 mph - N/A   Scattered Clouds
8:00 AM 57.2 °F 50.0 °F 77% 30.39 in 6.2 mi Variable 2.3 mph - N/A   Partly Cloudy
8:30 AM 59.0 °F 50.0 °F 72% 30.39 in 6.2 mi SE 3.5 mph - N/A   Partly Cloudy
9:00 AM 60.8 °F 51.8 °F 72% 30.39 in 6.2 mi SSE 4.6 mph - N/A   Scattered Clouds
9:30 AM 62.6 °F 51.8 °F 68% 30.39 in 6.2 mi SSE 9.2 mph - N/A   Scattered Clouds
10:00 AM 64 °F 53 °F 57%  in 6 mi SE 6.9 mph - -   Partly Cloudy
10:00 AM 64.4 °F 51.8 °F 64% 30.39 in 6.2 mi SE 6.9 mph - N/A   Partly Cloudy
10:30 AM 64.4 °F 53.6 °F 68% 30.39 in 6.2 mi SSE 9.2 mph - N/A   Mostly Cloudy
11:00 AM 64.4 °F 53.6 °F 68% 30.39 in 6.2 mi SSE 8.1 mph - N/A   Mostly Cloudy
11:30 AM 66.2 °F 53.6 °F 64% 30.36 in 6.2 mi South 9.2 mph - N/A   Overcast
12:00 PM 66.2 °F 53.6 °F 64% 30.36 in 6.2 mi SSE 9.2 mph - N/A   Overcast
12:30 PM 66.2 °F 53.6 °F 64% 30.36 in 6.2 mi South 8.1 mph - N/A   Overcast
1:00 PM 67 °F 54 °F 53%  in 6 mi South 8.1 mph - -   Partly Cloudy
1:00 PM 66.2 °F 53.6 °F 64% 30.33 in 6.2 mi South 8.1 mph - N/A   Overcast
1:30 PM 66.2 °F 53.6 °F 64% 30.33 in 6.2 mi South 5.8 mph - N/A   Overcast
2:00 PM 66.2 °F 50.0 °F 56% 30.30 in 6.2 mi WSW 4.6 mph - N/A   Mostly Cloudy
2:30 PM 68.0 °F 51.8 °F 56% 30.30 in 6.2 mi South 10.4 mph - N/A   Overcast
3:00 PM 64.4 °F 51.8 °F 64% 30.27 in 6.2 mi SSE 10.4 mph - N/A   Overcast
3:30 PM 64.4 °F 53.6 °F 68% 30.27 in 6.2 mi West 5.8 mph - N/A   Overcast
4:00 PM 62.6 °F 53.6 °F 72% 30.27 in 6.2 mi West 6.9 mph - N/A   Overcast
4:30 PM 62.6 °F 53.6 °F 72% 30.27 in 6.2 mi East 6.9 mph - N/A   Mostly Cloudy
5:00 PM 60.8 °F 55.4 °F 82% 30.30 in 6.2 mi Variable 2.3 mph - N/A   Overcast
5:30 PM - - N/A% - 6.2 mi North - - N/A   Overcast
6:00 PM 57.2 °F 57.2 °F 100% 30.30 in 6.2 mi ESE 5.8 mph - N/A   Overcast